Details From SBMQ - MACAPA
To SOCA - Cayenne Rochambeau
Flight Number -
Tags generated
Created
Modified
Stats Distance 297 nm / 549 km
Max Altitude 0 ft / 0 m
Waypoints 2
Social Downloads 3
Likes 0
Share

Download

Looking for another format? Having issues loading an existing format? Contact us
Advertisement - Login to hide

Notes

Basic altitude profile: - Ascent Rate: 500ft/min - Ascent Speed: 90kts - Cruise Altitude: 35000ft - Cruise Speed: 95kts - Descent Rate: 500ft/min - Descent Speed: 100kts Options: - Use NATs: yes - Use PACOTS: yes - Use low airways: no - Use high airways: no

Route

SBMQ SOCA

ID Type Via Altitude (ft/m) Position (lat/lon) Dist (leg/tot) Name
O SBMQ APT - 0 / 0 0.05064 / -51.07216 - / 0 nm MACAPA
O SOCA APT - 0 / 0 4.81981 / -52.36045 296 / 296 nm Cayenne Rochambeau

Altitude Profile

Advertisement - Login to hide

Weather


0- 5 10 15 20 25 30 35+ Temperature / °C

Clouds and Precipitation
Forecast for 2021-03-22 12:00 UTC. Updated 21 days ago

Ground ~20,000 ft ~40,000 ft Winds

SBMQ

Details ICAO SBMQ (MCP)
Name Macapa, Alberto A Intl
Region Brazil
Timezone America/Belem (UTC-3.0)
Stats Elevation 56 ft / 17 m (AMSL)
Location 0.050621° -51.072100°
Runways 1
Magnetic Variation 19.473° W

METAR

SBMQ 120400Z 04004KT 9999 TS SCT016 FEW040CB 27/26 Q1011

Decode

TAF

TAF SBMQ 112045Z 1200/1224 03005KT 7000 SCT017 TN25/1209Z TX32/1216Z BECMG 1200/1202 36005KT BECMG 1206/1208 33005KT BECMG 1212/1214 05007KT BECMG 1218/1220 09007KT PROB30 1220/1222 SCT025 FEW030TCU RMK PGW

Decode

Departure Runways

ID Width Length Bearing (true/mag) Surface Threshold Overrun Markings Lighting
08 148 ft / 45 m 6,896 ft / 2,102 m 57.22° / 76.69° ASPHALT 0 ft / 0 m 0 ft / 0 m APP EDGE THRESHOLD REIL-OMNI
26 148 ft / 45 m 6,896 ft / 2,102 m 237.22° / 256.69° ASPHALT 0 ft / 0 m 0 ft / 0 m APP EDGE THRESHOLD REIL-OMNI

SOCA

Details ICAO SOCA (CAY)
Name Cayenne-Felix Eboue Intl
Region French Guiana
Timezone America/Cayenne (UTC-3.0)
Stats Elevation 26 ft / 8 m (AMSL)
Location 4.820030° -52.361100°
Runways 1
Magnetic Variation 18.454° W

METAR

SOCA 120400Z AUTO 00000KT 9999 FEW018 24/24 Q1011

Decode

TAF

Not found

Destination Runways

ID Width Length Bearing (true/mag) Surface Threshold Overrun Markings Lighting
08 148 ft / 45 m 10,489 ft / 3,197 m 65.20° / 83.65° ASPHALT 0 ft / 0 m 0 ft / 0 m PREC-APP CENTERLINE EDGE THRESHOLD MALSR TDZ REIL-OMNI
26 148 ft / 45 m 10,489 ft / 3,197 m 245.20° / 263.65° ASPHALT 0 ft / 0 m 0 ft / 0 m APP CENTERLINE EDGE THRESHOLD REIL-OMNI

Popular Alternatives